W0LTA Weather Reports


Display with metric or nautical units.
time (UTC)temp
F
wind
direction
speed
MPH
gust
MPH
rain 1hr
in
rain 24hr
in
rain mn
in
humidity
%
barometer
mb
20181216165940 43 11 3.0 4.0 0.00 0.00 0.00 37 1026.2
20181216165442 41 193 0.0 1.0 0.00 0.00 0.00 37 1026.1
20181216164939 40 193 0.0 3.0 0.00 0.00 0.00 42 1026.2
20181216164428 38 193 0.0 3.0 0.00 0.00 0.00 47 1026.2
20181216163927 36 184 1.0 2.0 0.00 0.00 0.00 50 1026.1
20181216163440 36 184 0.0 1.0 0.00 0.00 0.00 52 1026.2
20181216162924 35 184 0.0 2.0 0.00 0.00 0.00 52 1026.2
20181216162437 34 184 1.0 3.0 0.00 0.00 0.00 54 1026.1
20181216161940 33 186 2.0 3.0 0.00 0.00 0.00 55 1026.2
20181216161441 32 185 1.0 3.0 0.00 0.00 0.00 57 1026.2
20181216160942 31 185 2.0 3.0 0.00 0.00 0.00 58 1026.1
20181216160439 30 199 2.0 3.0 0.00 0.00 0.00 60 1026.1
20181216155920 29 177 1.0 2.0 0.00 0.00 0.00 62 1026.1
20181216155421 29 177 1.0 2.0 0.00 0.00 0.00 62 1026.1
20181216154942 28 177 0.0 3.0 0.00 0.00 0.00 63 1026.1
20181216154440 28 177 1.0 4.0 0.00 0.00 0.00 64 1026.0
20181216153938 27 182 2.0 4.0 0.00 0.00 0.00 65 1026.1
20181216153439 26 230 2.0 3.0 0.00 0.00 0.00 66 1026.1
20181216152937 25 11 3.0 3.0 0.00 0.00 0.00 67 1025.9
20181216152436 24 16 1.0 5.0 0.00 0.00 0.00 67 1026.0
20181216151933 24 15 0.0 5.0 0.00 0.00 0.00 67 1025.9
20181216151436 23 30 2.0 4.0 0.00 0.00 0.00 67 1025.9
20181216150935 23 198 2.0 3.0 0.00 0.00 0.00 67 1025.8
20181216150436 22 198 1.0 3.0 0.00 0.00 0.00 67 1025.8
20181216145933 22 198 1.0 3.0 0.00 0.00 0.00 67 1025.7
20181216145433 22 198 2.0 3.0 0.00 0.00 0.00 67 1025.6
20181216144935 22 198 2.0 4.0 0.00 0.00 0.00 67 1025.6
20181216144436 21 188 2.0 4.0 0.00 0.00 0.00 67 1025.6
20181216143935 21 203 3.0 4.0 0.00 0.00 0.00 67 1025.6
20181216143439 21 194 3.0 4.0 0.00 0.00 0.00 67 1025.6
20181216142936 21 194 0.0 4.0 0.00 0.00 0.00 67 1025.7
20181216142442 21 194 2.0 4.0 0.00 0.00 0.00 67 1025.5
20181216141935 21 182 3.0 4.0 0.00 0.00 0.00 67 1025.5
20181216141439 21 182 1.0 4.0 0.00 0.00 0.00 67 1025.5
20181216140942 21 180 3.0 4.0 0.00 0.00 0.00 67 1025.5
20181216140443 21 180 1.0 4.0 0.00 0.00 0.00 67 1025.5
20181216135939 21 180 2.0 3.0 0.00 0.00 0.00 67 1025.6
20181216135440 21 180 1.0 4.0 0.00 0.00 0.00 67 1025.6
20181216134937 21 180 3.0 4.0 0.00 0.00 0.00 67 1025.6
20181216134438 21 168 1.0 3.0 0.00 0.00 0.00 67 1025.6
20181216133940 21 168 2.0 3.0 0.00 0.00 0.00 67 1025.7
20181216133442 21 168 1.0 5.0 0.00 0.00 0.00 67 1025.7
20181216132923 21 176 4.0 5.0 0.00 0.00 0.00 67 1025.6
20181216132424 21 184 2.0 3.0 0.00 0.00 0.00 67 1025.6
20181216131924 21 187 2.0 4.0 0.00 0.00 0.00 67 1025.5
20181216131424 21 187 3.0 4.0 0.00 0.00 0.00 67 1025.5
20181216130943 21 169 2.0 4.0 0.00 0.00 0.00 66 1025.7
20181216130422 21 169 1.0 4.0 0.00 0.00 0.00 66 1025.5
20181216125930 21 94 2.0 3.0 0.00 0.00 0.00 66 1025.5
20181216125426 21 26 1.0 3.0 0.00 0.00 0.00 65 1025.7
20181216124929 21 26 2.0 3.0 0.00 0.00 0.00 65 1025.6
20181216124431 21 26 0.0 2.0 0.00 0.00 0.00 65 1025.6
20181216123929 21 26 0.0 4.0 0.00 0.00 0.00 65 1025.4
20181216123429 21 26 3.0 4.0 0.00 0.00 0.00 65 1025.4
20181216122930 21 296 0.0 4.0 0.00 0.00 0.00 64 1025.1
20181216121940 22 207 0.0 3.0 0.00 0.00 0.00 64 1025.0
20181216121440 22 200 2.0 3.0 0.00 0.00 0.00 64 1024.8
20181216120935 22 89 1.0 3.0 0.00 0.00 0.00 64 1024.9
20181216120436 22 89 0.0 2.0 0.00 0.00 0.00 64 1025.0
20181216115938 22 89 0.0 3.0 0.00 0.00 0.00 64 1024.7
20181216115435 22 89 2.0 3.0 0.00 0.00 0.00 63 1024.6
20181216114933 22 78 1.0 3.0 0.00 0.00 0.00 63 1024.8
20181216114430 22 167 2.0 4.0 0.00 0.00 0.00 63 1024.7
20181216113934 22 218 3.0 4.0 0.00 0.00 0.00 62 1024.5
20181216113432 22 157 1.0 3.0 0.00 0.00 0.00 62 1024.7
20181216112935 23 99 1.0 2.0 0.00 0.00 0.00 62 1024.7
20181216112434 23 99 0.0 2.0 0.00 0.00 0.00 61 1024.4
20181216111935 23 99 1.0 3.0 0.00 0.00 0.00 61 1024.5
20181216111437 23 99 1.0 3.0 0.00 0.00 0.00 61 1024.4
20181216110931 24 99 1.0 2.0 0.00 0.00 0.00 60 1024.4
20181216110426 24 99 0.0 2.0 0.00 0.00 0.00 60 1024.4
20181216105927 24 99 0.0 2.0 0.00 0.00 0.00 60 1024.6
20181216105429 25 99 0.0 2.0 0.00 0.00 0.00 60 1024.4
20181216104927 25 99 0.0 3.0 0.00 0.00 0.00 60 1024.4
20181216104432 25 99 2.0 3.0 0.00 0.00 0.00 60 1024.3
20181216103937 25 46 0.0 3.0 0.00 0.00 0.00 59 1024.5
20181216103438 26 46 3.0 3.0 0.00 0.00 0.00 59 1024.4
20181216102936 26 169 2.0 4.0 0.00 0.00 0.00 60 1024.2
20181216102438 26 169 2.0 4.0 0.00 0.00 0.00 60 1024.4
20181216101934 26 169 2.0 4.0 0.00 0.00 0.00 60 1024.4
20181216101431 26 167 3.0 4.0 0.00 0.00 0.00 60 1024.3
20181216100931 26 169 3.0 4.0 0.00 0.00 0.00 60 1024.4
20181216100432 26 169 3.0 4.0 0.00 0.00 0.00 60 1024.5
20181216095935 26 169 3.0 4.0 0.00 0.00 0.00 60 1024.4
20181216095439 26 173 4.0 4.0 0.00 0.00 0.00 60 1024.4
20181216094938 26 182 3.0 4.0 0.00 0.00 0.00 60 1024.4
20181216094435 26 182 3.0 3.0 0.00 0.00 0.00 60 1024.6
20181216093936 26 182 2.0 3.0 0.00 0.00 0.00 60 1024.5
20181216093433 26 182 3.0 3.0 0.00 0.00 0.00 61 1024.4
20181216092930 26 182 3.0 4.0 0.00 0.00 0.00 61 1024.5
20181216092435 26 182 3.0 4.0 0.00 0.00 0.00 62 1024.4
20181216091936 26 187 3.0 4.0 0.00 0.00 0.00 62 1024.4
20181216091433 26 172 3.0 6.0 0.00 0.00 0.00 62 1024.3
20181216090934 26 173 5.0 6.0 0.00 0.00 0.00 62 1024.2
20181216090435 26 169 4.0 5.0 0.00 0.00 0.00 63 1024.5
20181216085939 26 174 4.0 4.0 0.00 0.00 0.00 63 1024.6
20181216085437 26 176 3.0 4.0 0.00 0.00 0.00 64 1024.6
20181216084938 26 176 3.0 4.0 0.00 0.00 0.00 64 1024.7
20181216084435 26 176 3.0 5.0 0.00 0.00 0.00 64 1024.7
20181216083932 26 176 3.0 5.0 0.00 0.00 0.00 64 1024.6
20181216083432 26 170 4.0 5.0 0.00 0.00 0.00 64 1024.7
20181216082934 26 183 3.0 4.0 0.00 0.00 0.00 64 1025.0
20181216082434 26 169 3.0 4.0 0.00 0.00 0.00 64 1024.9
20181216081936 26 190 3.0 4.0 0.00 0.00 0.00 64 1025.0
20181216081440 26 186 3.0 4.0 0.00 0.00 0.00 65 1024.9
20181216080933 26 173 2.0 3.0 0.00 0.00 0.00 65 1024.7
20181216080442 26 173 2.0 4.0 0.00 0.00 0.00 65 1024.6
20181216075940 26 173 3.0 4.0 0.00 0.00 0.00 65 1024.7
20181216075441 26 173 2.0 3.0 0.00 0.00 0.00 65 1024.8
20181216074939 25 173 2.0 3.0 0.00 0.00 0.00 65 1024.7
20181216074440 25 173 2.0 3.0 0.00 0.00 0.00 65 1024.6
20181216073938 25 173 1.0 3.0 0.00 0.00 0.00 65 1024.5
20181216073439 25 173 2.0 3.0 0.00 0.00 0.00 65 1024.4
20181216072943 25 173 2.0 3.0 0.00 0.00 0.00 65 1024.6
20181216072425 25 173 2.0 3.0 0.00 0.00 0.00 65 1024.3
20181216071927 25 173 0.0 2.0 0.00 0.00 0.00 65 1024.3
20181216071427 25 173 1.0 4.0 0.00 0.00 0.00 65 1024.2
20181216070929 24 173 3.0 4.0 0.00 0.00 0.00 66 1024.1
20181216070442 24 170 3.0 4.0 0.00 0.00 0.00 65 1023.9
20181216065938 24 186 3.0 4.0 0.00 0.00 0.00 66 1023.9
20181216065436 24 221 3.0 5.0 0.00 0.00 0.00 66 1024.0
20181216064934 24 195 3.0 5.0 0.00 0.00 0.00 66 1023.9
20181216064420 24 175 3.0 5.0 0.00 0.00 0.00 67 1023.9
20181216063925 24 175 3.0 4.0 0.00 0.00 0.00 67 1023.9
20181216063426 23 176 2.0 4.0 0.00 0.00 0.00 67 1023.9
20181216062929 23 179 3.0 4.0 0.00 0.00 0.00 67 1023.9
20181216062432 23 181 2.0 4.0 0.00 0.00 0.00 67 1024.0
20181216061932 23 195 3.0 4.0 0.00 0.00 0.00 67 1024.2
20181216061438 22 146 2.0 3.0 0.00 0.00 0.00 65 1024.0
20181216060940 22 41 1.0 3.0 0.00 0.00 0.00 65 1024.0
20181216060441 22 40 2.0 3.0 0.00 0.00 0.00 65 1024.0
20181216055936 22 37 2.0 6.0 0.00 0.00 0.00 65 1023.9
20181216055420 22 37 3.0 7.0 0.00 0.00 0.00 64 1023.8
20181216054921 23 15 5.0 7.0 0.00 0.00 0.00 64 1023.8
20181216054442 23 19 4.0 5.0 0.00 0.00 0.00 63 1023.7
20181216053939 23 360 2.0 5.0 0.00 0.00 0.00 64 1023.5
20181216053423 23 103 0.0 3.0 0.00 0.00 0.00 63 1023.1
20181216052922 24 104 2.0 2.0 0.00 0.00 0.00 63 1022.7
20181216052439 24 104 1.0 2.0 0.00 0.00 0.00 62 1022.8
20181216051941 24 102 1.0 3.0 0.00 0.00 0.00 62 1022.7
20181216051442 24 102 2.0 3.0 0.00 0.00 0.00 62 1022.8
20181216050924 24 204 0.0 2.0 0.00 0.00 0.00 62 1022.9
20181216050445 24 204 0.0 3.0 0.00 0.00 0.00 62 1022.8
20181216045924 24 204 1.0 3.0 0.00 0.00 0.00 61 1022.7
20181216045443 24 171 2.0 3.0 0.00 0.00 0.00 61 1022.6
20181216044927 24 171 2.0 3.0 0.00 0.00 0.00 61 1022.6
20181216044428 25 171 1.0 3.0 0.00 0.00 0.00 60 1022.5
20181216043932 25 101 1.0 3.0 0.00 0.00 0.00 60 1022.3
20181216043432 25 22 0.0 5.0 0.00 0.00 0.00 59 1022.3
20181216042935 26 24 3.0 5.0 0.00 0.00 0.00 59 1022.2
20181216042435 26 188 0.0 3.0 0.00 0.00 0.00 58 1022.1
20181216041932 26 175 2.0 3.0 0.00 0.00 0.00 58 1021.9
20181216041435 27 178 1.0 3.0 0.00 0.00 0.00 58 1021.8
20181216040935 27 138 1.0 3.0 0.00 0.00 0.00 58 1021.7
20181216040431 27 138 1.0 3.0 0.00 0.00 0.00 58 1021.7
20181216035929 27 138 3.0 3.0 0.00 0.00 0.00 58 1021.5
20181216035427 28 151 3.0 3.0 0.00 0.00 0.00 57 1021.6
20181216034930 28 146 1.0 3.0 0.00 0.00 0.00 58 1021.7
20181216034428 28 146 2.0 3.0 0.00 0.00 0.00 57 1021.4
20181216033925 28 181 2.0 4.0 0.00 0.00 0.00 57 1021.5
20181216033425 28 186 2.0 4.0 0.00 0.00 0.00 57 1021.4
20181216032926 28 187 2.0 4.0 0.00 0.00 0.00 57 1021.2
20181216032426 28 187 2.0 4.0 0.00 0.00 0.00 57 1021.1
20181216031928 28 187 3.0 4.0 0.00 0.00 0.00 57 1021.1
20181216031425 28 186 2.0 3.0 0.00 0.00 0.00 57 1021.1
20181216030946 28 186 2.0 3.0 0.00 0.00 0.00 57 1021.1
20181216030435 28 186 2.0 3.0 0.00 0.00 0.00 56 1021.0
20181216025932 28 192 2.0 3.0 0.00 0.00 0.00 56 1020.9
20181216025436 28 192 2.0 3.0 0.00 0.00 0.00 56 1020.9
20181216024937 28 216 2.0 3.0 0.00 0.00 0.00 56 1020.8
20181216024437 28 220 2.0 2.0 0.00 0.00 0.00 56 1020.9
20181216023935 28 220 1.0 2.0 0.00 0.00 0.00 55 1020.9
20181216023442 28 220 1.0 3.0 0.00 0.00 0.00 55 1020.8
20181216022922 28 220 2.0 3.0 0.00 0.00 0.00 55 1020.8
20181216022439 28 220 2.0 3.0 0.00 0.00 0.00 55 1020.8
20181216021936 29 220 3.0 3.0 0.00 0.00 0.00 55 1020.7
20181216021436 29 220 2.0 3.0 0.00 0.00 0.00 55 1020.6
20181216020933 29 220 1.0 3.0 0.00 0.00 0.00 54 1020.6
20181216020427 29 222 2.0 3.0 0.00 0.00 0.00 54 1020.6
20181216015925 29 245 2.0 2.0 0.00 0.00 0.00 54 1020.6
20181216015429 29 245 2.0 3.0 0.00 0.00 0.00 53 1020.6
20181216014930 29 246 2.0 3.0 0.00 0.00 0.00 53 1020.5
20181216014432 29 266 1.0 2.0 0.00 0.00 0.00 53 1020.5
20181216013930 30 5 1.0 2.0 0.00 0.00 0.00 52 1020.4
20181216013432 30 5 1.0 2.0 0.00 0.00 0.00 52 1020.4
20181216012930 30 5 1.0 2.0 0.00 0.00 0.00 51 1020.3
20181216012433 31 360 1.0 3.0 0.00 0.00 0.00 50 1020.3
20181216011931 31 360 0.0 4.0 0.00 0.00 0.00 50 1020.3
20181216011429 32 338 1.0 3.0 0.00 0.00 0.00 50 1020.3
20181216010929 32 177 1.0 2.0 0.00 0.00 0.00 49 1020.1
20181216010423 33 180 2.0 3.0 0.00 0.00 0.00 48 1020.0
20181216005930 33 184 3.0 3.0 0.00 0.00 0.00 48 1020.0
20181216005430 33 171 2.0 3.0 0.00 0.00 0.00 47 1019.9
20181216004928 34 171 1.0 3.0 0.00 0.00 0.00 47 1020.0
20181216004426 34 171 1.0 3.0 0.00 0.00 0.00 47 1019.8
20181216003927 34 170 1.0 4.0 0.00 0.00 0.00 47 1019.7
20181216003430 34 170 3.0 4.0 0.00 0.00 0.00 47 1019.7
20181216002934 34 180 3.0 3.0 0.00 0.00 0.00 46 1019.7
20181216002434 35 180 2.0 3.0 0.00 0.00 0.00 46 1019.7
20181216001932 35 207 2.0 3.0 0.00 0.00 0.00 45 1019.7
20181216001433 36 200 2.0 4.0 0.00 0.00 0.00 45 1019.7
20181216000931 36 217 2.0 5.0 0.00 0.00 0.00 45 1019.7
20181216000431 36 221 3.0 7.0 0.00 0.00 0.00 45 1019.7
20181215235931 37 271 4.0 6.0 0.00 0.00 0.00 44 1019.5
20181215235433 37 215 3.0 4.0 0.00 0.00 0.00 44 1019.4
20181215234935 38 96 1.0 5.0 0.00 0.00 0.00 43 1019.2
20181215234431 39 121 3.0 4.0 0.00 0.00 0.00 42 1019.0
20181215233935 39 123 3.0 4.0 0.00 0.00 0.00 39 1019.1
20181215233433 40 99 2.0 5.0 0.00 0.00 0.00 38 1019.2
20181215232932 41 80 2.0 3.0 0.00 0.00 0.00 37 1019.2
20181215232434 42 107 2.0 3.0 0.00 0.00 0.00 36 1019.1
20181215231931 42 53 1.0 4.0 0.00 0.00 0.00 35 1019.0
20181215231432 43 51 2.0 4.0 0.00 0.00 0.00 35 1019.1
20181215230941 43 85 1.0 3.0 0.00 0.00 0.00 34 1018.9
20181215230441 44 68 1.0 3.0 0.00 0.00 0.00 34 1019.0
20181215225931 44 14 0.0 5.0 0.00 0.00 0.00 34 1019.0
20181215225436 45 14 2.0 5.0 0.00 0.00 0.00 33 1018.9
20181215224933 45 10 1.0 5.0 0.00 0.00 0.00 33 1018.9
20181215224437 45 10 4.0 5.0 0.00 0.00 0.00 32 1018.9
20181215223937 45 25 1.0 5.0 0.00 0.00 0.00 32 1018.5
20181215223434 45 25 4.0 5.0 0.00 0.00 0.00 33 1018.5
20181215222934 45 19 3.0 4.0 0.00 0.00 0.00 33 1018.4
20181215222437 44 15 2.0 4.0 0.00 0.00 0.00 34 1018.2
20181215221923 44 17 2.0 4.0 0.00 0.00 0.00 33 1018.2
20181215221442 44 88 3.0 5.0 0.00 0.00 0.00 33 1017.9
20181215220940 44 134 2.0 3.0 0.00 0.00 0.00 33 1017.7
20181215220437 44 69 1.0 3.0 0.00 0.00 0.00 33 1017.7
20181215215935 44 51 0.0 4.0 0.00 0.00 0.00 32 1017.7
20181215215429 44 55 2.0 4.0 0.00 0.00 0.00 34 1017.7
20181215214930 44 76 1.0 3.0 0.00 0.00 0.00 34 1017.4
20181215214426 44 69 2.0 3.0 0.00 0.00 0.00 35 1017.3
20181215213922 44 69 2.0 4.0 0.00 0.00 0.00 35 1017.3
20181215213423 44 56 3.0 4.0 0.00 0.00 0.00 37 1017.4
20181215212941 44 10 2.0 4.0 0.00 0.00 0.00 37 1017.3
20181215212438 44 360 2.0 5.0 0.00 0.00 0.00 38 1017.2
20181215211925 44 20 4.0 5.0 0.00 0.00 0.00 37 1017.2
20181215211424 43 25 2.0 3.0 0.00 0.00 0.00 36 1017.0
20181215210942 43 30 1.0 5.0 0.00 0.00 0.00 37 1016.8
20181215210440 43 30 1.0 6.0 0.00 0.00 0.00 38 1017.0
20181215205922 43 19 5.0 6.0 0.00 0.00 0.00 37 1017.0
20181215205437 43 46 1.0 3.0 0.00 0.00 0.00 38 1016.8
20181215204934 42 46 2.0 3.0 0.00 0.00 0.00 39 1016.9
20181215204440 42 122 1.0 3.0 0.00 0.00 0.00 39 1016.8
20181215203941 42 61 1.0 2.0 0.00 0.00 0.00 40 1016.7
20181215203442 42 61 0.0 3.0 0.00 0.00 0.00 40 1016.9
20181215202927 42 41 2.0 4.0 0.00 0.00 0.00 40 1016.9
20181215202424 42 348 1.0 4.0 0.00 0.00 0.00 41 1017.0
20181215201943 42 305 1.0 5.0 0.00 0.00 0.00 42 1016.9
20181215201532 42 21 3.0 5.0 0.00 0.00 0.00 40 1017.0
20181215200938 42 5 2.0 4.0 0.00 0.00 0.00 38 1016.9
20181215200449 42 137 1.0 2.0 0.00 0.00 0.00 39 1016.5
20181215195935 41 137 0.0 2.0 0.00 0.00 0.00 39 1016.5
20181215195436 41 137 1.0 3.0 0.00 0.00 0.00 38 1016.6
20181215194936 41 137 1.0 2.0 0.00 0.00 0.00 38 1016.3
20181215194439 41 137 0.0 0.0 0.00 0.00 0.00 38 1016.5
20181215193923 41 137 0.0 2.0 0.00 0.00 0.00 38 1016.6
20181215193422 41 137 0.0 2.0 0.00 0.00 0.00 38 1016.5
20181215192926 41 132 0.0 4.0 0.00 0.00 0.00 38 1016.5
20181215192426 41 132 2.0 4.0 0.00 0.00 0.00 39 1016.6
20181215191927 41 120 2.0 3.0 0.00 0.00 0.00 39 1016.7
20181215191426 41 147 2.0 5.0 0.00 0.00 0.00 38 1016.7
20181215190923 41 47 2.0 5.0 0.00 0.00 0.00 39 1016.9
20181215190429 41 32 4.0 5.0 0.00 0.00 0.00 41 1016.9
20181215185927 40 36 2.0 3.0 0.00 0.00 0.00 41 1016.9
20181215185423 40 36 1.0 10.0 0.00 0.00 0.00 41 1016.9
20181215184941 40 35 2.0 10.0 0.00 0.00 0.00 41 1017.0
20181215184438 40 351 1.0 4.0 0.00 0.00 0.00 39 1017.2
20181215183939 40 155 2.0 4.0 0.00 0.00 0.00 40 1017.0
20181215183436 39 155 2.0 3.0 0.00 0.00 0.00 41 1017.2
20181215182935 39 155 1.0 4.0 0.00 0.00 0.00 41 1017.4
20181215182433 39 155 2.0 5.0 0.00 0.00 0.00 42 1017.5
20181215181930 39 180 4.0 6.0 0.00 0.00 0.00 43 1017.4
20181215181429 38 165 4.0 6.0 0.00 0.00 0.00 44 1017.2
20181215180930 38 189 2.0 4.0 0.00 0.00 0.00 44 1017.4
20181215180428 38 188 2.0 4.0 0.00 0.00 0.00 44 1017.5
20181215175928 38 175 3.0 3.0 0.00 0.00 0.00 45 1017.4
20181215175428 37 195 2.0 3.0 0.00 0.00 0.00 45 1017.4
20181215174930 37 195 1.0 4.0 0.00 0.00 0.00 45 1017.3
20181215174437 37 195 3.0 4.0 0.00 0.00 0.00 45 1017.4
20181215173937 37 213 3.0 4.0 0.00 0.00 0.00 45 1017.2
20181215173438 37 211 2.0 4.0 0.00 0.00 0.00 45 1017.3
20181215172940 37 274 1.0 5.0 0.00 0.00 0.00 45 1017.4
20181215172437 37 221 2.0 5.0 0.00 0.00 0.00 45 1017.4
20181215171937 38 227 3.0 5.0 0.00 0.00 0.00 45 1017.4
20181215171435 38 236 2.0 4.0 0.00 0.00 0.00 44 1017.4
20181215170933 39 244 3.0 4.0 0.00 0.00 0.00 43 1017.4
20181215170438 40 342 1.0 3.0 0.00 0.00 0.00 41 1017.3